Time,TemperatureF,DewpointF,PressureIn,WindDirection,WindDirectionDegrees,WindSpeedMPH,WindSpeedGustMPH,Humidity,HourlyPrecipIn,Conditions,Clouds,dailyrainin,SoftwareType,DateUTC
2012-09-01 00:01:00,74.8,74.2,29.91,SE,136,0.0,0.0,98,0.00,,,0.00,VWS V13.01,2012-09-01 05:01:00,
2012-09-01 00:06:00,74.8,74.2,29.91,SE,136,0.0,0.0,98,0.00,,,0.00,VWS V13.01,2012-09-01 05:06:00,
2012-09-01 00:11:00,74.6,74.0,29.91,SE,136,0.0,0.0,98,0.00,,,0.00,VWS V13.01,2012-09-01 05:11:00,
2012-09-01 00:16:00,74.6,74.0,29.88,SE,136,0.0,0.0,98,0.00,,,0.00,VWS V13.01,2012-09-01 05:16:00,
2012-09-01 00:21:00,74.6,74.3,29.88,SE,136,0.0,0.0,99,0.00,,,0.00,VWS V13.01,2012-09-01 05:21:00,
2012-09-01 00:26:00,74.4,74.1,29.88,SE,136,0.0,0.0,99,0.00,,,0.00,VWS V13.01,2012-09-01 05:26:00,
2012-09-01 00:31:00,74.4,74.1,29.88,SE,136,0.0,0.0,99,0.00,,,0.00,VWS V13.01,2012-09-01 05:31:00,
2012-09-01 00:36:00,74.2,73.9,29.88,SE,136,0.0,0.0,99,0.00,,,0.00,VWS V13.01,2012-09-01 05:36:00,
2012-09-01 00:41:00,74.1,73.8,29.88,SE,136,0.0,0.0,99,0.00,,,0.00,VWS V13.01,2012-09-01 05:41:00,
2012-09-01 00:46:00,74.1,73.8,29.88,North,355,0.0,0.0,99,0.00,,,0.00,VWS V13.01,2012-09-01 05:46:00,
2012-09-01 00:51:00,74.1,74.1,29.88,North,7,3.1,3.1,100,0.00,,,0.00,VWS V13.01,2012-09-01 05:51:00,
2012-09-01 00:56:00,74.1,74.1,29.88,NNE,14,0.0,0.0,100,0.00,,,0.00,VWS V13.01,2012-09-01 05:56:00,
2012-09-01 01:01:00,73.9,73.9,29.91,NNE,14,0.0,0.0,100,0.00,,,0.00,VWS V13.01,2012-09-01 06:01:00,
2012-09-01 01:06:00,73.9,73.9,29.91,East,85,0.0,0.0,100,0.00,,,0.00,VWS V13.01,2012-09-01 06:06:00,
2012-09-01 01:11:00,73.9,73.9,29.91,East,85,0.0,0.0,100,0.00,,,0.00,VWS V13.01,2012-09-01 06:11:00,
2012-09-01 01:16:00,73.9,73.9,29.91,East,85,0.0,0.0,100,0.00,,,0.00,VWS V13.01,2012-09-01 06:16:00,
2012-09-01 01:21:00,73.9,73.9,29.91,ENE,62,0.0,0.0,100,0.00,,,0.00,VWS V13.01,2012-09-01 06:21:00,
2012-09-01 01:26:00,73.9,73.9,29.91,WNW,296,0.0,0.0,100,0.00,,,0.00,VWS V13.01,2012-09-01 06:26:00,
2012-09-01 01:31:00,73.9,73.9,29.88,NW,305,0.0,0.0,100,0.00,,,0.00,VWS V13.01,2012-09-01 06:31:00,
2012-09-01 01:36:00,73.9,73.9,29.88,NNW,336,2.2,2.2,100,0.00,,,0.00,VWS V13.01,2012-09-01 06:36:00,
2012-09-01 01:41:00,73.9,73.9,29.88,NNW,336,0.0,0.0,100,0.00,,,0.00,VWS V13.01,2012-09-01 06:41:00,
2012-09-01 01:46:00,73.9,73.9,29.91,NNW,336,0.0,0.0,100,0.00,,,0.00,VWS V13.01,2012-09-01 06:46:00,
2012-09-01 01:51:00,73.9,73.9,29.91,NNW,336,0.0,0.0,100,0.00,,,0.00,VWS V13.01,2012-09-01 06:51:00,
2012-09-01 01:56:00,73.9,73.9,29.91,NNW,336,0.0,0.0,100,0.00,,,0.00,VWS V13.01,2012-09-01 06:56:00,
2012-09-01 02:01:00,73.9,73.9,29.88,NNW,336,0.0,0.0,100,0.00,,,0.00,VWS V13.01,2012-09-01 07:01:00,
2012-09-01 02:06:00,73.9,73.9,29.88,NNW,336,0.0,0.0,100,0.00,,,0.00,VWS V13.01,2012-09-01 07:06:00,
2012-09-01 02:11:00,74.1,74.1,29.88,NNW,334,0.0,0.0,100,0.00,,,0.00,VWS V13.01,2012-09-01 07:11:00,
2012-09-01 02:16:00,73.9,73.9,29.88,NNW,334,0.0,0.0,100,0.00,,,0.00,VWS V13.01,2012-09-01 07:16:00,
2012-09-01 02:21:00,73.7,73.7,29.88,NNW,334,0.0,0.0,100,0.00,,,0.00,VWS V13.01,2012-09-01 07:21:00,
2012-09-01 02:26:00,73.7,73.7,29.88,NE,50,0.0,0.0,100,0.00,,,0.00,VWS V13.01,2012-09-01 07:26:00,
2012-09-01 02:31:00,73.7,73.7,29.91,NE,50,0.0,0.0,100,0.00,,,0.00,VWS V13.01,2012-09-01 07:31:00,
2012-09-01 02:36:00,73.7,73.7,29.91,NE,50,0.0,0.0,100,0.00,,,0.00,VWS V13.01,2012-09-01 07:36:00,
2012-09-01 02:41:00,73.7,73.7,29.91,ESE,102,0.0,0.0,100,0.00,,,0.00,VWS V13.01,2012-09-01 07:41:00,
2012-09-01 02:46:00,73.7,73.7,29.91,ESE,102,0.0,0.0,100,0.00,,,0.00,VWS V13.01,2012-09-01 07:46:00,
2012-09-01 02:51:00,73.7,73.7,29.91,ESE,102,0.0,0.0,100,0.00,,,0.00,VWS V13.01,2012-09-01 07:51:00,
2012-09-01 02:56:00,73.7,73.7,29.91,ESE,102,0.0,0.0,100,0.00,,,0.00,VWS V13.01,2012-09-01 07:56:00,
2012-09-01 03:01:00,73.7,73.7,29.91,ESE,102,0.0,0.0,100,0.00,,,0.00,VWS V13.01,2012-09-01 08:01:00,
2012-09-01 03:07:00,73.7,73.7,29.91,ESE,102,0.0,0.0,100,0.00,,,0.00,VWS V13.01,2012-09-01 08:07:00,
2012-09-01 03:12:00,73.5,73.5,29.91,NW,310,0.0,3.6,100,0.00,,,0.00,VWS V13.01,2012-09-01 08:12:00,
2012-09-01 03:17:00,73.3,73.3,29.91,NNW,343,0.0,0.0,100,0.00,,,0.00,VWS V13.01,2012-09-01 08:17:00,
2012-09-01 03:22:00,73.3,73.3,29.91,NNW,328,0.0,0.0,100,0.00,,,0.00,VWS V13.01,2012-09-01 08:22:00,
2012-09-01 03:27:00,73.3,73.3,29.91,North,358,0.0,0.0,100,0.00,,,0.00,VWS V13.01,2012-09-01 08:27:00,
2012-09-01 03:32:00,73.5,73.5,29.91,North,358,0.0,0.0,100,0.00,,,0.00,VWS V13.01,2012-09-01 08:32:00,
2012-09-01 03:37:00,73.5,73.5,29.91,North,358,0.0,0.0,100,0.00,,,0.00,VWS V13.01,2012-09-01 08:37:00,
2012-09-01 03:42:00,73.5,73.5,29.91,North,358,0.0,0.0,100,0.00,,,0.00,VWS V13.01,2012-09-01 08:42:00,
2012-09-01 03:47:00,73.5,73.5,29.91,North,358,0.0,0.0,100,0.00,,,0.00,VWS V13.01,2012-09-01 08:47:00,
2012-09-01 03:52:00,73.5,73.5,29.91,North,358,0.0,0.0,100,0.00,,,0.00,VWS V13.01,2012-09-01 08:52:00,
2012-09-01 03:57:00,73.3,73.3,29.91,ESE,110,0.0,0.0,100,0.00,,,0.00,VWS V13.01,2012-09-01 08:57:00,
2012-09-01 04:02:00,73.3,73.3,29.91,ESE,110,0.0,0.0,100,0.00,,,0.00,VWS V13.01,2012-09-01 09:02:00,
2012-09-01 04:07:00,73.3,73.3,29.91,NW,312,2.2,2.7,100,0.00,,,0.00,VWS V13.01,2012-09-01 09:07:00,
2012-09-01 04:12:00,73.3,73.3,29.91,NW,309,0.0,0.0,100,0.00,,,0.00,VWS V13.01,2012-09-01 09:12:00,
2012-09-01 04:17:00,73.3,73.3,29.91,NW,309,0.0,0.0,100,0.00,,,0.00,VWS V13.01,2012-09-01 09:17:00,
2012-09-01 04:22:00,73.2,73.2,29.91,NW,309,0.0,0.0,100,0.00,,,0.00,VWS V13.01,2012-09-01 09:22:00,
2012-09-01 04:27:00,73.2,73.2,29.91,NW,309,0.0,0.0,100,0.00,,,0.00,VWS V13.01,2012-09-01 09:27:00,
2012-09-01 04:32:00,73.0,73.0,29.91,NW,309,0.0,0.0,100,0.00,,,0.00,VWS V13.01,2012-09-01 09:32:00,
2012-09-01 04:37:00,73.0,73.0,29.91,NW,309,0.0,0.0,100,0.00,,,0.00,VWS V13.01,2012-09-01 09:37:00,
2012-09-01 04:42:00,72.8,72.8,29.91,NW,309,0.0,0.0,100,0.00,,,0.00,VWS V13.01,2012-09-01 09:42:00,
2012-09-01 04:47:00,72.8,72.8,29.91,NW,309,0.0,0.0,100,0.00,,,0.00,VWS V13.01,2012-09-01 09:47:00,
2012-09-01 04:52:00,72.8,72.8,29.91,NW,309,0.0,0.0,100,0.00,,,0.00,VWS V13.01,2012-09-01 09:52:00,
2012-09-01 04:57:00,72.8,72.8,29.91,NW,309,0.0,0.0,100,0.00,,,0.00,VWS V13.01,2012-09-01 09:57:00,
2012-09-01 05:02:00,72.6,72.6,29.91,North,353,0.0,0.0,100,0.00,,,0.00,VWS V13.01,2012-09-01 10:02:00,
2012-09-01 05:07:00,72.6,72.6,29.91,NNW,332,0.0,0.0,100,0.00,,,0.00,VWS V13.01,2012-09-01 10:07:00,
2012-09-01 05:12:00,72.6,72.6,29.91,NNW,332,0.0,0.0,100,0.00,,,0.00,VWS V13.01,2012-09-01 10:12:00,
2012-09-01 05:17:00,72.6,72.6,29.91,NNW,342,0.0,0.0,100,0.00,,,0.00,VWS V13.01,2012-09-01 10:17:00,
2012-09-01 05:22:00,72.6,72.6,29.91,NNW,342,0.0,0.0,100,0.00,,,0.00,VWS V13.01,2012-09-01 10:22:00,
2012-09-01 05:27:00,72.6,72.6,29.91,NNW,342,0.0,0.0,100,0.00,,,0.00,VWS V13.01,2012-09-01 10:27:00,
2012-09-01 05:32:00,72.6,72.6,29.91,NNW,342,0.0,0.0,100,0.00,,,0.00,VWS V13.01,2012-09-01 10:32:00,
2012-09-01 05:37:00,72.6,72.6,29.91,NNW,342,0.0,0.0,100,0.00,,,0.00,VWS V13.01,2012-09-01 10:37:00,
2012-09-01 05:42:00,72.6,72.6,29.91,NNW,342,0.0,0.0,100,0.00,,,0.00,VWS V13.01,2012-09-01 10:42:00,
2012-09-01 05:47:00,72.6,72.6,29.91,NNW,342,0.0,0.0,100,0.00,,,0.00,VWS V13.01,2012-09-01 10:47:00,
2012-09-01 05:52:00,72.6,72.6,29.91,NNW,342,0.0,0.0,100,0.00,,,0.00,VWS V13.01,2012-09-01 10:52:00,
2012-09-01 05:57:00,72.6,72.6,29.91,NNW,342,0.0,0.0,100,0.00,,,0.00,VWS V13.01,2012-09-01 10:57:00,
2012-09-01 06:02:00,72.6,72.6,29.91,NNW,342,0.0,0.0,100,0.00,,,0.00,VWS V13.01,2012-09-01 11:02:00,
2012-09-01 06:07:00,72.6,72.6,29.91,NNW,342,0.0,0.0,100,0.00,,,0.00,VWS V13.01,2012-09-01 11:07:00,
2012-09-01 06:12:00,72.6,72.6,29.91,NNW,342,0.0,0.0,100,0.00,,,0.00,VWS V13.01,2012-09-01 11:12:00,
2012-09-01 06:17:00,72.6,72.6,29.91,NNW,342,0.0,0.0,100,0.00,,,0.00,VWS V13.01,2012-09-01 11:17:00,
2012-09-01 06:22:00,72.6,72.6,29.91,NNW,342,0.0,0.0,100,0.00,,,0.00,VWS V13.01,2012-09-01 11:22:00,
2012-09-01 06:28:00,72.6,72.6,29.91,NNW,342,0.0,0.0,100,0.00,,,0.00,VWS V13.01,2012-09-01 11:28:00,
2012-09-01 06:33:00,72.6,72.6,29.91,NNW,342,0.0,0.0,100,0.00,,,0.00,VWS V13.01,2012-09-01 11:33:00,
2012-09-01 06:38:00,72.4,72.4,29.91,NNW,342,0.0,0.0,100,0.00,,,0.00,VWS V13.01,2012-09-01 11:38:00,
2012-09-01 06:43:00,72.4,72.4,29.91,NNW,342,0.0,0.0,100,0.00,,,0.00,VWS V13.01,2012-09-01 11:43:00,
2012-09-01 06:47:00,72.4,72.4,29.91,NNW,342,0.0,0.0,100,0.00,,,0.00,VWS V13.01,2012-09-01 11:47:00,
2012-09-01 06:52:00,72.4,72.4,29.91,NNW,342,0.0,0.0,100,0.00,,,0.00,VWS V13.01,2012-09-01 11:52:00,
2012-09-01 06:57:00,72.4,72.4,29.91,NNW,342,0.0,0.0,100,0.00,,,0.00,VWS V13.01,2012-09-01 11:57:00,
2012-09-01 07:02:00,72.4,72.4,29.91,NNW,342,0.0,0.0,100,0.00,,,0.00,VWS V13.01,2012-09-01 12:02:00,
2012-09-01 07:07:00,72.3,72.3,29.91,SSE,162,0.0,0.0,100,0.00,,,0.00,VWS V13.01,2012-09-01 12:07:00,
2012-09-01 07:12:00,72.4,72.4,29.91,SSE,162,0.0,0.0,100,0.00,,,0.00,VWS V13.01,2012-09-01 12:12:00,
2012-09-01 07:17:00,72.4,72.4,29.94,SSE,162,0.0,0.0,100,0.00,,,0.00,VWS V13.01,2012-09-01 12:17:00,
2012-09-01 07:22:00,72.6,72.6,29.94,SSE,162,0.0,0.0,100,0.00,,,0.00,VWS V13.01,2012-09-01 12:22:00,
2012-09-01 07:27:00,72.6,72.6,29.94,SW,233,0.0,0.0,100,0.00,,,0.00,VWS V13.01,2012-09-01 12:27:00,
2012-09-01 07:32:00,73.0,73.0,29.94,WNW,292,0.0,0.0,100,0.00,,,0.00,VWS V13.01,2012-09-01 12:32:00,
2012-09-01 07:37:00,73.2,73.2,29.94,WNW,292,0.0,0.0,100,0.00,,,0.00,VWS V13.01,2012-09-01 12:37:00,
2012-09-01 07:42:00,73.2,73.2,29.94,WNW,292,0.0,0.0,100,0.00,,,0.00,VWS V13.01,2012-09-01 12:42:00,
2012-09-01 07:47:00,73.3,73.3,29.94,WNW,292,0.0,0.0,100,0.00,,,0.00,VWS V13.01,2012-09-01 12:47:00,
2012-09-01 07:52:00,73.3,73.3,29.94,NW,306,0.0,0.0,100,0.00,,,0.00,VWS V13.01,2012-09-01 12:52:00,
2012-09-01 07:57:00,73.5,73.5,29.94,NW,306,0.0,0.0,100,0.00,,,0.00,VWS V13.01,2012-09-01 12:57:00,
2012-09-01 08:02:00,73.9,73.9,29.94,NW,306,0.0,0.0,100,0.00,,,0.00,VWS V13.01,2012-09-01 13:02:00,
2012-09-01 08:07:00,74.1,74.1,29.94,NW,306,0.0,0.0,100,0.00,,,0.00,VWS V13.01,2012-09-01 13:07:00,
2012-09-01 08:12:00,74.2,74.2,29.94,NW,308,0.0,0.0,100,0.00,,,0.00,VWS V13.01,2012-09-01 13:12:00,
2012-09-01 08:17:00,74.4,74.4,29.94,NW,308,0.0,0.0,100,0.00,,,0.00,VWS V13.01,2012-09-01 13:17:00,
2012-09-01 08:22:00,74.6,74.6,29.94,NNW,329,0.0,0.0,100,0.00,,,0.00,VWS V13.01,2012-09-01 13:22:00,
2012-09-01 08:28:00,74.6,74.6,29.94,NNW,329,0.0,0.0,100,0.00,,,0.00,VWS V13.01,2012-09-01 13:28:00,
2012-09-01 08:33:00,74.6,74.6,29.94,NNW,333,0.0,0.0,100,0.00,,,0.00,VWS V13.01,2012-09-01 13:33:00,
2012-09-01 08:38:00,74.8,74.8,29.94,NNW,330,0.0,0.0,100,0.00,,,0.00,VWS V13.01,2012-09-01 13:38:00,
2012-09-01 08:43:00,74.8,74.8,29.94,NNW,340,0.0,0.0,100,0.00,,,0.00,VWS V13.01,2012-09-01 13:43:00,
2012-09-01 08:48:00,74.8,74.8,29.94,NNW,340,0.0,0.0,100,0.00,,,0.00,VWS V13.01,2012-09-01 13:48:00,
2012-09-01 08:53:00,75.0,75.0,29.94,NNE,23,0.0,0.0,100,0.00,,,0.00,VWS V13.01,2012-09-01 13:53:00,
2012-09-01 08:58:00,75.3,75.3,29.94,NNE,23,0.0,0.0,100,0.00,,,0.00,VWS V13.01,2012-09-01 13:58:00,
2012-09-01 09:03:00,75.3,75.3,29.94,NE,36,0.0,0.0,100,0.00,,,0.00,VWS V13.01,2012-09-01 14:03:00,
2012-09-01 09:08:00,75.9,75.9,29.94,NE,36,0.0,0.0,100,0.00,,,0.00,VWS V13.01,2012-09-01 14:08:00,
2012-09-01 09:13:00,76.2,76.2,29.94,NE,36,0.0,0.0,100,0.00,,,0.00,VWS V13.01,2012-09-01 14:13:00,
2012-09-01 09:17:00,76.4,76.4,29.94,West,279,0.0,0.0,100,0.00,,,0.00,VWS V13.01,2012-09-01 14:17:00,
2012-09-01 09:22:00,76.8,76.8,29.94,West,279,0.0,0.0,100,0.00,,,0.00,VWS V13.01,2012-09-01 14:22:00,
2012-09-01 09:27:00,76.9,76.9,29.94,West,279,0.0,0.0,100,0.00,,,0.00,VWS V13.01,2012-09-01 14:27:00,
2012-09-01 09:33:00,77.1,77.1,29.97,WSW,237,0.0,0.0,100,0.00,,,0.00,VWS V13.01,2012-09-01 14:33:00,
2012-09-01 09:38:00,77.7,77.7,29.97,SW,229,0.0,0.0,100,0.00,,,0.00,VWS V13.01,2012-09-01 14:38:00,
2012-09-01 09:43:00,77.8,77.8,29.97,WSW,250,0.0,0.0,100,0.00,,,0.00,VWS V13.01,2012-09-01 14:43:00,
2012-09-01 09:48:00,78.4,78.4,29.97,WSW,240,0.0,0.0,100,0.00,,,0.00,VWS V13.01,2012-09-01 14:48:00,
2012-09-01 09:53:00,78.0,73.5,29.97,West,266,0.0,0.0,86,0.00,,,0.00,VWS V13.01,2012-09-01 14:53:00,
2012-09-01 09:58:00,79.5,71.2,29.97,West,264,0.0,0.0,76,0.00,,,0.00,VWS V13.01,2012-09-01 14:58:00,
2012-09-01 10:03:00,80.2,70.8,29.97,West,268,2.2,2.2,73,0.00,,,0.00,VWS V13.01,2012-09-01 15:03:00,
2012-09-01 10:08:00,80.7,71.3,29.97,WSW,238,2.7,2.7,73,0.00,,,0.00,VWS V13.01,2012-09-01 15:08:00,
2012-09-01 10:13:00,80.9,70.6,29.97,WSW,239,0.0,0.0,71,0.00,,,0.00,VWS V13.01,2012-09-01 15:13:00,
2012-09-01 10:18:00,81.3,70.1,29.97,SW,220,0.0,0.0,69,0.00,,,0.00,VWS V13.01,2012-09-01 15:18:00,
2012-09-01 10:23:00,81.8,70.2,29.97,SE,143,0.0,0.0,68,0.00,,,0.00,VWS V13.01,2012-09-01 15:23:00,
2012-09-01 10:28:00,82.0,70.8,29.97,South,186,3.1,3.1,69,0.00,,,0.00,VWS V13.01,2012-09-01 15:28:00,
2012-09-01 10:33:00,82.0,69.5,29.97,South,172,0.0,0.0,66,0.00,,,0.00,VWS V13.01,2012-09-01 15:33:00,
2012-09-01 10:38:00,82.2,70.1,29.97,South,177,0.0,0.0,67,0.00,,,0.00,VWS V13.01,2012-09-01 15:38:00,
2012-09-01 10:43:00,82.3,69.8,29.97,SSW,199,0.0,0.0,66,0.00,,,0.00,VWS V13.01,2012-09-01 15:43:00,
2012-09-01 10:48:00,82.3,69.4,29.97,NW,305,0.0,2.2,65,0.00,,,0.00,VWS V13.01,2012-09-01 15:48:00,
2012-09-01 10:53:00,82.5,69.6,29.97,NW,305,0.0,0.0,65,0.00,,,0.00,VWS V13.01,2012-09-01 15:53:00,
2012-09-01 10:58:00,82.7,70.2,29.97,WNW,292,0.0,0.0,66,0.00,,,0.00,VWS V13.01,2012-09-01 15:58:00,
2012-09-01 11:03:00,83.1,70.5,29.97,WNW,293,0.0,0.0,66,0.00,,,0.00,VWS V13.01,2012-09-01 16:03:00,
2012-09-01 11:08:00,83.2,70.3,29.97,NNW,340,0.0,0.0,65,0.00,,,0.00,VWS V13.01,2012-09-01 16:08:00,
2012-09-01 11:13:00,83.4,70.0,29.97,WSW,241,0.0,2.2,64,0.00,,,0.00,VWS V13.01,2012-09-01 16:13:00,
2012-09-01 11:18:00,83.8,69.8,29.94,WNW,297,0.0,0.0,63,0.00,,,0.00,VWS V13.01,2012-09-01 16:18:00,
2012-09-01 11:23:00,83.8,69.4,29.94,WNW,296,4.0,4.0,62,0.00,,,0.00,VWS V13.01,2012-09-01 16:23:00,
2012-09-01 11:28:00,84.1,70.7,29.94,WSW,244,0.0,0.0,64,0.00,,,0.00,VWS V13.01,2012-09-01 16:28:00,
2012-09-01 11:33:00,84.3,70.4,29.97,West,261,2.7,3.6,63,0.00,,,0.00,VWS V13.01,2012-09-01 16:33:00,
2012-09-01 11:38:00,84.9,69.9,29.97,SSE,157,3.6,3.6,61,0.00,,,0.00,VWS V13.01,2012-09-01 16:38:00,
2012-09-01 11:43:00,85.4,69.0,29.97,SW,232,4.0,4.0,58,0.00,,,0.00,VWS V13.01,2012-09-01 16:43:00,
2012-09-01 11:48:00,85.9,69.5,29.94,WSW,247,4.0,4.0,58,0.00,,,0.00,VWS V13.01,2012-09-01 16:48:00,
2012-09-01 11:53:00,86.7,69.1,29.94,South,183,5.4,5.8,56,0.00,,,0.00,VWS V13.01,2012-09-01 16:53:00,
2012-09-01 11:58:00,87.6,68.3,29.94,SW,218,8.1,8.1,53,0.00,,,0.00,VWS V13.01,2012-09-01 16:58:00,
2012-09-01 12:03:00,87.7,67.9,29.94,WSW,254,7.2,8.3,52,0.00,,,0.00,VWS V13.01,2012-09-01 17:03:00,
2012-09-01 12:08:00,87.7,67.9,29.94,WSW,242,5.4,6.7,52,0.00,,,0.00,VWS V13.01,2012-09-01 17:08:00,
2012-09-01 12:13:00,87.7,68.5,29.94,SW,223,4.0,5.4,53,0.00,,,0.00,VWS V13.01,2012-09-01 17:13:00,
2012-09-01 12:18:00,88.1,67.7,29.94,SSW,197,6.7,7.6,51,0.00,,,0.00,VWS V13.01,2012-09-01 17:18:00,
2012-09-01 12:23:00,88.5,67.5,29.94,South,173,10.5,10.5,50,0.00,,,0.00,VWS V13.01,2012-09-01 17:23:00,
2012-09-01 12:28:00,89.0,67.4,29.94,SW,236,11.4,11.4,49,0.00,,,0.00,VWS V13.01,2012-09-01 17:28:00,
2012-09-01 12:33:00,89.2,66.3,29.94,SW,222,6.3,10.1,47,0.00,,,0.00,VWS V13.01,2012-09-01 17:33:00,
2012-09-01 12:38:00,89.4,65.2,29.94,South,179,8.3,8.3,45,0.00,,,0.00,VWS V13.01,2012-09-01 17:38:00,
2012-09-01 12:43:00,89.7,66.2,29.94,South,178,5.8,5.8,46,0.00,,,0.00,VWS V13.01,2012-09-01 17:43:00,
2012-09-01 12:48:00,90.3,64.8,29.94,WSW,247,15.9,15.9,43,0.00,,,0.00,VWS V13.01,2012-09-01 17:48:00,
2012-09-01 12:53:00,90.6,65.7,29.94,SW,219,10.5,10.5,44,0.00,,,0.00,VWS V13.01,2012-09-01 17:53:00,
2012-09-01 12:58:00,90.8,64.6,29.94,SW,224,10.1,10.1,42,0.00,,,0.00,VWS V13.01,2012-09-01 17:58:00,
2012-09-01 13:03:00,90.8,65.2,29.94,WSW,248,7.6,10.1,43,0.00,,,0.00,VWS V13.01,2012-09-01 18:03:00,
2012-09-01 13:08:00,91.0,65.4,29.94,SW,235,11.0,12.8,43,0.00,,,0.00,VWS V13.01,2012-09-01 18:08:00,
2012-09-01 13:13:00,90.8,63.9,29.94,SW,223,12.8,12.8,41,0.00,,,0.00,VWS V13.01,2012-09-01 18:13:00,
2012-09-01 13:18:00,91.0,64.0,29.94,West,259,12.8,15.0,41,0.00,,,0.00,VWS V13.01,2012-09-01 18:18:00,
2012-09-01 13:23:00,91.2,63.5,29.94,WSW,244,12.8,13.2,40,0.00,,,0.00,VWS V13.01,2012-09-01 18:23:00,
2012-09-01 13:28:00,91.2,64.9,29.94,SW,231,4.0,5.4,42,0.00,,,0.00,VWS V13.01,2012-09-01 18:28:00,
2012-09-01 13:33:00,91.3,65.7,29.91,SW,224,5.4,5.8,43,0.00,,,0.00,VWS V13.01,2012-09-01 18:33:00,
2012-09-01 13:38:00,91.7,64.7,29.91,SW,226,5.8,5.8,41,0.00,,,0.00,VWS V13.01,2012-09-01 18:38:00,
2012-09-01 13:43:00,92.1,65.0,29.91,SSW,211,10.1,15.0,41,0.00,,,0.00,VWS V13.01,2012-09-01 18:43:00,
2012-09-01 13:48:00,92.6,65.5,29.91,SW,220,15.4,15.4,41,0.00,,,0.00,VWS V13.01,2012-09-01 18:48:00,
2012-09-01 13:53:00,92.8,64.9,29.91,SW,236,18.8,18.8,40,0.00,,,0.00,VWS V13.01,2012-09-01 18:53:00,
2012-09-01 13:58:00,92.6,64.1,29.91,SW,225,15.9,15.9,39,0.00,,,0.00,VWS V13.01,2012-09-01 18:58:00,
2012-09-01 14:03:00,92.6,64.1,29.91,SW,221,11.0,17.0,39,0.00,,,0.00,VWS V13.01,2012-09-01 19:03:00,
2012-09-01 14:08:00,92.6,64.8,29.91,SW,232,5.4,6.3,40,0.00,,,0.00,VWS V13.01,2012-09-01 19:08:00,
2012-09-01 14:13:00,92.8,65.6,29.91,SSW,210,5.8,5.8,41,0.00,,,0.00,VWS V13.01,2012-09-01 19:13:00,
2012-09-01 14:18:00,93.3,64.7,29.91,SW,222,12.3,12.3,39,0.00,,,0.00,VWS V13.01,2012-09-01 19:18:00,
2012-09-01 14:23:00,93.3,64.7,29.91,WSW,243,8.1,12.8,39,0.00,,,0.00,VWS V13.01,2012-09-01 19:23:00,
2012-09-01 14:28:00,93.3,64.0,29.91,SSW,197,8.3,10.5,38,0.00,,,0.00,VWS V13.01,2012-09-01 19:28:00,
2012-09-01 14:33:00,93.7,65.0,29.91,SW,232,6.3,7.6,39,0.00,,,0.00,VWS V13.01,2012-09-01 19:33:00,
2012-09-01 14:38:00,94.2,64.7,29.91,SW,233,11.0,11.0,38,0.00,,,0.00,VWS V13.01,2012-09-01 19:38:00,
2012-09-01 14:43:00,94.8,64.5,29.91,South,171,7.6,11.0,37,0.00,,,0.00,VWS V13.01,2012-09-01 19:43:00,
2012-09-01 14:48:00,94.9,64.6,29.91,WSW,243,9.2,9.2,37,0.00,,,0.00,VWS V13.01,2012-09-01 19:48:00,
2012-09-01 14:53:00,94.9,63.8,29.91,SSW,194,5.4,6.3,36,0.00,,,0.00,VWS V13.01,2012-09-01 19:53:00,
2012-09-01 14:58:00,95.1,64.8,29.91,WSW,238,9.2,9.2,37,0.00,,,0.00,VWS V13.01,2012-09-01 19:58:00,
2012-09-01 15:03:00,94.9,63.8,29.88,SW,226,12.8,12.8,36,0.00,,,0.00,VWS V13.01,2012-09-01 20:03:00,
2012-09-01 15:08:00,94.9,63.8,29.88,South,179,6.7,8.7,36,0.00,,,0.00,VWS V13.01,2012-09-01 20:08:00,
2012-09-01 15:13:00,95.5,63.5,29.88,SSE,161,6.3,8.7,35,0.00,,,0.00,VWS V13.01,2012-09-01 20:13:00,
2012-09-01 15:18:00,96.4,62.6,29.88,SSW,210,5.8,7.6,33,0.00,,,0.00,VWS V13.01,2012-09-01 20:18:00,
2012-09-01 15:23:00,96.4,64.3,29.88,WSW,251,11.0,11.0,35,0.00,,,0.00,VWS V13.01,2012-09-01 20:23:00,
2012-09-01 15:28:00,96.0,63.2,29.88,WSW,238,10.1,10.1,34,0.00,,,0.00,VWS V13.01,2012-09-01 20:28:00,
2012-09-01 15:33:00,95.8,62.1,29.88,SW,229,10.1,10.1,33,0.00,,,0.00,VWS V13.01,2012-09-01 20:33:00,
2012-09-01 15:38:00,96.4,59.0,29.88,SW,236,10.1,11.0,29,0.00,,,0.00,VWS V13.01,2012-09-01 20:38:00,
2012-09-01 15:43:00,96.9,59.4,29.88,WSW,243,11.0,13.2,29,0.00,,,0.00,VWS V13.01,2012-09-01 20:43:00,
2012-09-01 15:48:00,97.1,58.6,29.88,West,271,11.0,11.0,28,0.00,,,0.00,VWS V13.01,2012-09-01 20:48:00,
2012-09-01 15:53:00,96.9,58.5,29.88,West,260,15.0,15.4,28,0.00,,,0.00,VWS V13.01,2012-09-01 20:53:00,
2012-09-01 15:58:00,97.1,58.6,29.88,WSW,241,14.5,14.5,28,0.00,,,0.00,VWS V13.01,2012-09-01 20:58:00,
2012-09-01 16:03:00,97.1,58.6,29.88,West,269,13.2,13.2,28,0.00,,,0.00,VWS V13.01,2012-09-01 21:03:00,
2012-09-01 16:08:00,97.1,58.6,29.88,SW,235,16.8,16.8,28,0.00,,,0.00,VWS V13.01,2012-09-01 21:08:00,
2012-09-01 16:13:00,97.1,58.6,29.88,WSW,245,10.5,10.5,28,0.00,,,0.00,VWS V13.01,2012-09-01 21:13:00,
2012-09-01 16:18:00,96.9,58.5,29.88,WSW,240,10.1,14.5,28,0.00,,,0.00,VWS V13.01,2012-09-01 21:18:00,
2012-09-01 16:23:00,96.7,58.3,29.88,SW,224,8.3,13.6,28,0.00,,,0.00,VWS V13.01,2012-09-01 21:23:00,
2012-09-01 16:28:00,96.7,58.3,29.88,WNW,290,15.4,15.4,28,0.00,,,0.00,VWS V13.01,2012-09-01 21:28:00,
2012-09-01 16:33:00,96.7,58.3,29.88,WSW,247,8.1,10.1,28,0.00,,,0.00,VWS V13.01,2012-09-01 21:33:00,
2012-09-01 16:38:00,97.1,58.6,29.88,SW,229,13.2,13.2,28,0.00,,,0.00,VWS V13.01,2012-09-01 21:38:00,
2012-09-01 16:43:00,97.1,58.6,29.88,SW,224,15.4,15.4,28,0.00,,,0.00,VWS V13.01,2012-09-01 21:43:00,
2012-09-01 16:48:00,97.1,58.6,29.88,SSW,205,8.3,10.5,28,0.00,,,0.00,VWS V13.01,2012-09-01 21:48:00,
2012-09-01 16:53:00,97.1,58.6,29.88,SSW,211,8.7,15.9,28,0.00,,,0.00,VWS V13.01,2012-09-01 21:53:00,
2012-09-01 16:58:00,97.1,58.6,29.88,SW,231,11.0,19.7,28,0.00,,,0.00,VWS V13.01,2012-09-01 21:58:00,
2012-09-01 17:03:00,97.3,58.8,29.88,SW,236,11.0,13.2,28,0.00,,,0.00,VWS V13.01,2012-09-01 22:03:00,
2012-09-01 17:08:00,97.5,58.9,29.88,WSW,248,12.8,17.9,28,0.00,,,0.00,VWS V13.01,2012-09-01 22:08:00,
2012-09-01 17:13:00,97.5,58.9,29.88,SW,214,8.3,10.5,28,0.00,,,0.00,VWS V13.01,2012-09-01 22:13:00,
2012-09-01 17:18:00,97.3,58.8,29.85,SW,225,7.6,9.6,28,0.00,,,0.00,VWS V13.01,2012-09-01 22:18:00,
2012-09-01 17:23:00,97.3,58.8,29.85,SW,235,7.6,13.2,28,0.00,,,0.00,VWS V13.01,2012-09-01 22:23:00,
2012-09-01 17:28:00,97.3,58.8,29.85,SW,228,10.1,10.1,28,0.00,,,0.00,VWS V13.01,2012-09-01 22:28:00,
2012-09-01 17:32:00,97.3,58.8,29.85,SSW,213,8.7,8.7,28,0.00,,,0.00,VWS V13.01,2012-09-01 22:32:00,
2012-09-01 17:37:00,97.3,58.8,29.85,WSW,244,8.1,8.1,28,0.00,,,0.00,VWS V13.01,2012-09-01 22:37:00,
2012-09-01 17:42:00,97.3,58.8,29.85,WSW,242,8.1,9.6,28,0.00,,,0.00,VWS V13.01,2012-09-01 22:42:00,
2012-09-01 17:47:00,97.3,58.8,29.88,WSW,240,11.0,11.0,28,0.00,,,0.00,VWS V13.01,2012-09-01 22:47:00,
2012-09-01 17:52:00,97.3,58.8,29.88,SW,228,8.7,8.7,28,0.00,,,0.00,VWS V13.01,2012-09-01 22:52:00,
2012-09-01 17:57:00,97.3,58.8,29.88,West,259,9.2,12.3,28,0.00,,,0.00,VWS V13.01,2012-09-01 22:57:00,
2012-09-01 18:02:00,97.3,58.8,29.88,WNW,297,13.6,15.0,28,0.00,,,0.00,VWS V13.01,2012-09-01 23:02:00,
2012-09-01 18:07:00,97.1,58.6,29.88,SW,231,9.6,10.1,28,0.00,,,0.00,VWS V13.01,2012-09-01 23:07:00,
2012-09-01 18:12:00,97.3,58.8,29.85,WSW,239,6.3,6.7,28,0.00,,,0.00,VWS V13.01,2012-09-01 23:12:00,
2012-09-01 18:17:00,97.3,58.8,29.85,WSW,249,6.3,6.7,28,0.00,,,0.00,VWS V13.01,2012-09-01 23:17:00,
2012-09-01 18:22:00,97.3,58.8,29.85,West,265,5.8,8.1,28,0.00,,,0.00,VWS V13.01,2012-09-01 23:22:00,
2012-09-01 18:27:00,96.9,58.5,29.85,West,265,5.4,5.8,28,0.00,,,0.00,VWS V13.01,2012-09-01 23:27:00,
2012-09-01 18:32:00,96.6,58.1,29.85,WSW,246,4.0,4.0,28,0.00,,,0.00,VWS V13.01,2012-09-01 23:32:00,
2012-09-01 18:37:00,96.6,58.1,29.85,West,279,5.8,7.6,28,0.00,,,0.00,VWS V13.01,2012-09-01 23:37:00,
2012-09-01 18:42:00,96.6,58.1,29.85,SW,234,6.3,8.1,28,0.00,,,0.00,VWS V13.01,2012-09-01 23:42:00,
2012-09-01 18:47:00,96.6,58.1,29.85,West,264,5.8,5.8,28,0.00,,,0.00,VWS V13.01,2012-09-01 23:47:00,
2012-09-01 18:52:00,96.6,58.1,29.85,SW,234,3.1,6.3,28,0.00,,,0.00,VWS V13.01,2012-09-01 23:52:00,
2012-09-01 18:57:00,96.4,58.0,29.85,WSW,248,4.0,5.8,28,0.00,,,0.00,VWS V13.01,2012-09-01 23:57:00,
2012-09-01 19:02:00,96.2,57.8,29.85,West,265,3.6,3.6,28,0.00,,,0.00,VWS V13.01,2012-09-02 00:02:00,
2012-09-01 19:07:00,96.0,58.7,29.85,West,260,2.7,2.7,29,0.00,,,0.00,VWS V13.01,2012-09-02 00:07:00,
2012-09-01 19:12:00,95.8,58.5,29.85,WSW,256,2.7,3.6,29,0.00,,,0.00,VWS V13.01,2012-09-02 00:12:00,
2012-09-01 19:17:00,95.5,58.2,29.85,West,276,2.7,2.7,29,0.00,,,0.00,VWS V13.01,2012-09-02 00:17:00,
2012-09-01 19:22:00,94.9,58.7,29.85,WNW,301,2.7,4.0,30,0.00,,,0.00,VWS V13.01,2012-09-02 00:22:00,
2012-09-01 19:27:00,94.2,59.0,29.85,WNW,293,0.0,0.0,31,0.00,,,0.00,VWS V13.01,2012-09-02 00:27:00,
2012-09-01 19:32:00,93.7,59.4,29.85,WNW,294,0.0,0.0,32,0.00,,,0.00,VWS V13.01,2012-09-02 00:32:00,
2012-09-01 19:37:00,93.1,60.6,29.85,NNW,345,0.0,0.0,34,0.00,,,0.00,VWS V13.01,2012-09-02 00:37:00,
2012-09-01 19:42:00,92.4,63.2,29.85,NNW,345,0.0,0.0,38,0.00,,,0.00,VWS V13.01,2012-09-02 00:42:00,
2012-09-01 19:47:00,91.5,62.3,29.88,NNW,345,0.0,0.0,38,0.00,,,0.00,VWS V13.01,2012-09-02 00:47:00,
2012-09-01 19:52:00,90.8,61.7,29.88,NNW,346,0.0,0.0,38,0.00,,,0.00,VWS V13.01,2012-09-02 00:52:00,
2012-09-01 19:57:00,90.4,62.1,29.88,NNW,346,0.0,0.0,39,0.00,,,0.00,VWS V13.01,2012-09-02 00:57:00,
2012-09-01 20:02:00,90.1,62.5,29.88,NNW,346,0.0,0.0,40,0.00,,,0.00,VWS V13.01,2012-09-02 01:02:00,
2012-09-01 20:07:00,89.7,62.2,29.88,NNW,346,0.0,0.0,40,0.00,,,0.00,VWS V13.01,2012-09-02 01:07:00,
2012-09-01 20:12:00,89.4,62.6,29.88,NNW,346,0.0,0.0,41,0.00,,,0.00,VWS V13.01,2012-09-02 01:12:00,
2012-09-01 20:17:00,88.6,61.9,29.88,NNW,346,0.0,0.0,41,0.00,,,0.00,VWS V13.01,2012-09-02 01:17:00,
2012-09-01 20:22:00,88.1,62.8,29.88,NNW,346,0.0,0.0,43,0.00,,,0.00,VWS V13.01,2012-09-02 01:22:00,
2012-09-01 20:27:00,87.7,62.5,29.88,NNW,346,0.0,0.0,43,0.00,,,0.00,VWS V13.01,2012-09-02 01:27:00,
2012-09-01 20:32:00,87.4,62.8,29.88,NNW,346,0.0,0.0,44,0.00,,,0.00,VWS V13.01,2012-09-02 01:32:00,
2012-09-01 20:37:00,87.0,64.4,29.88,NNW,346,0.0,0.0,47,0.00,,,0.00,VWS V13.01,2012-09-02 01:37:00,
2012-09-01 20:42:00,86.8,63.6,29.88,NNW,346,0.0,0.0,46,0.00,,,0.00,VWS V13.01,2012-09-02 01:42:00,
2012-09-01 20:47:00,86.5,65.1,29.91,NNW,346,0.0,0.0,49,0.00,,,0.00,VWS V13.01,2012-09-02 01:47:00,
2012-09-01 20:52:00,86.1,64.7,29.91,NNW,346,0.0,0.0,49,0.00,,,0.00,VWS V13.01,2012-09-02 01:52:00,
2012-09-01 20:57:00,85.6,65.4,29.91,NNW,346,0.0,0.0,51,0.00,,,0.00,VWS V13.01,2012-09-02 01:57:00,
2012-09-01 21:02:00,85.0,65.5,29.91,NNW,346,0.0,0.0,52,0.00,,,0.00,VWS V13.01,2012-09-02 02:02:00,
2012-09-01 21:07:00,84.3,65.9,29.91,NNW,346,0.0,0.0,54,0.00,,,0.00,VWS V13.01,2012-09-02 02:07:00,
2012-09-01 21:12:00,84.0,66.1,29.91,NNW,346,0.0,0.0,55,0.00,,,0.00,VWS V13.01,2012-09-02 02:12:00,
2012-09-01 21:17:00,83.4,65.6,29.88,NNW,346,0.0,0.0,55,0.00,,,0.00,VWS V13.01,2012-09-02 02:17:00,
2012-09-01 21:22:00,83.1,66.3,29.88,NNW,346,0.0,0.0,57,0.00,,,0.00,VWS V13.01,2012-09-02 02:22:00,
2012-09-01 21:27:00,82.7,65.9,29.88,NNW,346,0.0,0.0,57,0.00,,,0.00,VWS V13.01,2012-09-02 02:27:00,
2012-09-01 21:32:00,82.5,66.3,29.91,NNW,346,0.0,0.0,58,0.00,,,0.00,VWS V13.01,2012-09-02 02:32:00,
2012-09-01 21:37:00,82.2,66.9,29.91,NNW,346,0.0,0.0,60,0.00,,,0.00,VWS V13.01,2012-09-02 02:37:00,
2012-09-01 21:42:00,81.8,68.0,29.91,NNW,346,0.0,0.0,63,0.00,,,0.00,VWS V13.01,2012-09-02 02:42:00,
2012-09-01 21:47:00,81.3,67.9,29.91,NNW,346,0.0,0.0,64,0.00,,,0.00,VWS V13.01,2012-09-02 02:47:00,
2012-09-01 21:52:00,81.1,69.1,29.91,NNW,346,0.0,0.0,67,0.00,,,0.00,VWS V13.01,2012-09-02 02:52:00,
2012-09-01 21:57:00,80.7,69.2,29.91,NNW,346,0.0,0.0,68,0.00,,,0.00,VWS V13.01,2012-09-02 02:57:00,
2012-09-01 22:02:00,80.4,68.4,29.91,NNW,346,0.0,0.0,67,0.00,,,0.00,VWS V13.01,2012-09-02 03:02:00,
2012-09-01 22:07:00,79.8,68.8,29.91,NNW,346,0.0,0.0,69,0.00,,,0.00,VWS V13.01,2012-09-02 03:07:00,
2012-09-01 22:12:00,79.6,70.2,29.91,NW,326,0.0,0.0,73,0.00,,,0.00,VWS V13.01,2012-09-02 03:12:00,
2012-09-01 22:17:00,79.6,69.8,29.91,NW,326,0.0,0.0,72,0.00,,,0.00,VWS V13.01,2012-09-02 03:17:00,
2012-09-01 22:22:00,79.6,69.8,29.91,NW,326,0.0,0.0,72,0.00,,,0.00,VWS V13.01,2012-09-02 03:22:00,
2012-09-01 22:27:00,79.6,69.4,29.91,NW,326,0.0,0.0,71,0.00,,,0.00,VWS V13.01,2012-09-02 03:27:00,
2012-09-01 22:32:00,79.6,69.0,29.88,NW,326,0.0,0.0,70,0.00,,,0.00,VWS V13.01,2012-09-02 03:32:00,
2012-09-01 22:37:00,79.5,68.8,29.88,NW,326,0.0,0.0,70,0.00,,,0.00,VWS V13.01,2012-09-02 03:37:00,
2012-09-01 22:42:00,79.5,69.2,29.88,NW,326,0.0,0.0,71,0.00,,,0.00,VWS V13.01,2012-09-02 03:42:00,
2012-09-01 22:47:00,79.3,69.5,29.91,South,175,0.0,0.0,72,0.00,,,0.00,VWS V13.01,2012-09-02 03:47:00,
2012-09-01 22:52:00,78.7,70.5,29.91,SSE,147,0.0,0.0,76,0.00,,,0.00,VWS V13.01,2012-09-02 03:52:00,
2012-09-01 22:57:00,78.4,70.6,29.91,SSE,147,0.0,0.0,77,0.00,,,0.00,VWS V13.01,2012-09-02 03:57:00,
2012-09-01 23:00:00,78.2,70.8,29.91,SSE,147,0.0,0.0,78,0.00,,,0.00,VWS V13.01,2012-09-02 04:00:00,
2012-09-01 23:05:00,78.0,70.2,29.91,SSE,147,0.0,0.0,77,0.00,,,0.00,VWS V13.01,2012-09-02 04:05:00,
2012-09-01 23:10:00,78.0,71.3,29.91,SSE,147,0.0,0.0,80,0.00,,,0.00,VWS V13.01,2012-09-02 04:10:00,
2012-09-01 23:15:00,77.7,70.6,29.91,NNW,339,0.0,0.0,79,0.00,,,0.00,VWS V13.01,2012-09-02 04:15:00,
2012-09-01 23:20:00,77.7,70.3,29.91,NNW,339,0.0,0.0,78,0.00,,,0.00,VWS V13.01,2012-09-02 04:20:00,
2012-09-01 23:25:00,77.7,69.9,29.91,North,350,0.0,0.0,77,0.00,,,0.00,VWS V13.01,2012-09-02 04:25:00,
2012-09-01 23:30:00,77.7,69.9,29.91,North,350,0.0,0.0,77,0.00,,,0.00,VWS V13.01,2012-09-02 04:30:00,
2012-09-01 23:35:00,77.5,69.7,29.91,North,350,0.0,0.0,77,0.00,,,0.00,VWS V13.01,2012-09-02 04:35:00,
2012-09-01 23:40:00,77.5,69.7,29.91,North,350,0.0,0.0,77,0.00,,,0.00,VWS V13.01,2012-09-02 04:40:00,
2012-09-01 23:45:00,77.3,69.5,29.91,North,350,0.0,0.0,77,0.00,,,0.00,VWS V13.01,2012-09-02 04:45:00,
2012-09-01 23:50:00,77.3,69.9,29.91,North,350,0.0,0.0,78,0.00,,,0.00,VWS V13.01,2012-09-02 04:50:00,
2012-09-01 23:55:00,77.1,69.7,29.91,North,350,0.0,0.0,78,0.00,,,0.00,VWS V13.01,2012-09-02 04:55:00,